Погода в Рио-Сан-Хуан

Доминиканская Республика     19°38′49″N   70°04′12″W
темп.,
°C
ветер,
м/с
пор.,
м/с
влажн.,
%
обл.,
%
осадки,
мм/ч
давл.,
гПа
погр.,
м
24 октября, вс
вс2423:00+27вюв6775100 1.7 1016629
02:00+28вюв7874100 4.4 1014910
05:00+27юв677422 0.3 1014824
08:00+28юв78745 1.7 1016854
11:00+28юв68725 0.1 1018888
14:00+28вюв88665 0.1 1016967
17:00+28вюв89685 0.0 1015793
20:00+28в886894 0.0 1017967
25 октября, пн
пн2523:00+28вюв67737 0.0 1017930
02:00+28юв677766 0.5 1016811
05:00+27юв677952 0.9 1016697
08:00+26ююв3482100 0.9 1018318
11:00+28вюв567616 0.4 1018765
14:00+28вюв67715 0.4 1015820
17:00+28вюв787790 0.0 1014757
20:00+28вюв777837 0.0 1016755
26 октября, вт
вт2623:00+28юв7878100 0.0 1015834
02:00+26ююв56845 0.1 1014407
05:00+26ююв578321 0.0 1014319
08:00+26ююв568388 0.0 1015288
11:00+28юв557418 0.0 1015375
14:00+28вюв877470 0.0 1012342
17:00+28вюв887518 0.0 1011480
20:00+28ююв5778100 1.1 1013420
27 октября, ср
ср2723:00+27ююв567386 0.8 1013291
02:00+26ю5670100 0.8 1012250
05:00+26ю5576100 0.0 1012226
08:00+26ююв5680100 0.0 1013280
11:00+28ююв4569100 0.0 1014613
14:00+29вюв5569100 0.0 1011219
17:00+29вюв5675100 0.0 1010340
20:00+28ю457586 0.3 1013323
28 октября, чт
чт2823:00+27ю45775 0.1 1014248
02:00+26ююв56825 0.1 1013284
05:00+25ю45855 0.0 1012238
08:00+26ю45845 0.0 1014265
11:00+28юв457251 0.0 1014389
14:00+29в66755 0.0 1012360
17:00+28в77785 2.0 1011387
20:00+28ююв5778100 4.4 1013424